Date,TemperatureHighF,TemperatureAvgF,TemperatureLowF,DewpointHighF,DewpointAvgF,DewpointLowF,HumidityHigh,HumidityAvg,HumidityLow,PressureMaxIn,PressureMinIn,WindSpeedMaxMPH,WindSpeedAvgMPH,GustSpeedMaxMPH,PrecipitationSumIn
2013-1-1,14,6,-1,5,1,-4,90,78,62,30.32,30.23,14,3,14,0.00
2013-1-2,22,15,8,17,9,3,88,77,58,30.25,30.11,15,4,15,0.00
2013-1-3,23,18,7,20,15,3,93,88,80,30.31,30.12,21,7,21,0.00
2013-1-4,28,18,7,20,13,4,93,84,71,30.27,30.17,25,7,26,0.00
2013-1-5,34,25,13,32,22,10,95,90,81,30.26,29.93,23,7,25,0.00
2013-1-6,27,20,11,23,16,9,90,84,78,30.33,29.93,20,6,23,0.00
2013-1-7,35,24,10,26,19,8,91,81,66,30.31,30.09,27,7,29,0.00
2013-1-8,38,31,23,32,27,20,95,85,72,30.12,29.96,24,7,24,0.00
2013-1-9,38,32,23,32,26,19,89,77,60,30.50,29.96,34,10,37,0.00
2013-1-10,38,32,23,34,27,20,97,83,69,30.52,29.84,25,8,25,0.21
2013-1-11,45,40,35,44,39,34,98,98,97,29.84,29.59,21,6,21,0.23
2013-1-12,48,30,19,45,25,13,98,82,74,30.05,29.60,37,13,37,0.01
2013-1-13,19,14,9,14,8,4,81,76,69,30.28,29.94,25,8,27,0.00
2013-1-14,24,13,4,13,7,2,90,78,58,30.51,30.28,17,4,18,0.00
2013-1-15,29,18,10,16,12,7,91,77,55,30.48,30.12,23,4,23,0.00
2013-1-16,35,26,15,32,21,10,91,81,72,30.12,29.83,31,9,31,0.00
2013-1-17,28,20,15,22,10,-1,87,63,45,30.43,30.12,16,6,21,0.00
2013-1-18,43,31,14,33,24,11,88,78,63,30.45,29.87,34,8,34,0.00
2013-1-19,45,34,12,35,27,2,88,74,37,30.04,29.69,55,12,55,0.00
2013-1-20,14,9,5,3,0,-2,74,65,50,30.36,30.04,32,9,33,0.00
2013-1-21,9,1,-4,3,-7,-10,83,69,55,30.37,30.22,28,11,28,0.00
2013-1-22,7,1,-7,-3,-7,-12,81,69,58,30.47,30.37,21,6,21,0.00
2013-1-23,18,11,2,13,4,-6,86,74,63,30.52,30.16,25,8,25,0.00
2013-1-24,15,6,-3,9,-2,-8,78,71,61,30.73,30.39,17,6,19,0.00
2013-1-25,25,18,13,17,12,6,88,76,64,30.39,30.00,29,9,30,0.00
2013-1-26,25,16,5,15,8,1,86,70,51,30.45,30.27,17,4,17,0.00
2013-1-27,33,27,21,32,23,14,97,84,69,30.37,29.86,23,9,23,0.05
2013-1-28,42,36,33,37,34,32,98,93,81,29.97,29.73,19,5,20,0.11
2013-1-29,53,42,33,53,42,32,98,98,97,29.78,29.49,16,6,17,1.25
2013-1-30,33,25,14,32,24,10,98,94,84,29.68,29.35,28,9,28,0.16
2013-1-31,14,7,-2,10,3,-6,89,82,73,30.26,29.68,24,10,28,0.00
2013-2-1,5,-2,-10,2,-7,-14,88,80,70,30.42,30.20,20,7,20,0.00
2013-2-2,13,8,3,7,4,0,91,83,71,30.20,30.07,12,3,12,0.00
2013-2-3,17,13,6,13,9,3,91,84,71,30.11,30.01,25,6,25,0.00
2013-2-4,19,14,9,13,10,5,92,84,71,30.04,29.96,13,3,13,0.00
2013-2-5,29,20,7,25,16,4,92,87,80,30.16,29.85,19,6,20,0.00
2013-2-6,35,22,10,32,19,8,95,86,74,30.25,30.08,19,5,19,0.00
2013-2-7,34,31,23,33,30,21,97,95,87,30.13,29.94,19,6,20,0.10
2013-2-8,27,21,12,21,18,10,94,85,72,30.43,30.13,19,4,19,0.00
2013-2-9,28,22,11,26,20,10,95,91,86,30.43,30.08,20,7,24,0.00
2013-2-10,42,34,24,42,33,23,98,96,91,30.09,29.39,36,12,36,0.03
2013-2-11,35,28,21,33,24,17,94,86,79,30.05,29.42,47,19,48,0.03
2013-2-12,30,23,20,24,19,15,94,83,75,30.13,29.90,26,8,26,0.00
2013-2-13,35,28,18,31,25,16,96,87,75,29.90,29.69,16,3,16,0.00
2013-2-14,35,32,27,32,27,21,95,81,61,30.04,29.60,29,8,29,0.01
2013-2-15,27,18,11,21,8,2,83,66,48,30.28,30.05,21,8,25,0.00
2013-2-16,17,10,3,5,2,-2,84,71,51,30.27,30.20,18,4,19,0.00
2013-2-17,27,16,2,21,9,-3,84,73,59,30.27,29.94,27,6,27,0.00
2013-2-18,45,32,16,36,27,13,97,83,67,29.94,29.52,32,10,32,0.02
2013-2-19,16,10,4,14,4,-2,89,79,68,30.30,29.63,34,14,35,0.01
2013-2-20,23,12,2,11,4,-4,79,72,58,30.47,30.30,18,5,18,0.00
2013-2-21,24,17,10,22,14,6,95,85,71,30.49,30.04,25,6,26,0.00
2013-2-22,29,25,23,25,23,21,94,90,85,30.04,29.84,23,6,25,0.00
2013-2-23,26,23,20,21,18,16,90,84,75,30.00,29.90,21,9,21,0.00
2013-2-24,37,25,12,26,18,9,94,77,56,30.18,30.00,11,2,11,0.01
2013-2-25,38,30,20,28,24,17,90,79,67,30.21,30.04,12,3,12,0.00
2013-2-26,33,30,27,28,26,23,95,84,70,30.04,29.69,31,10,31,0.00
2013-2-27,32,30,27,30,28,26,96,94,90,29.85,29.69,20,7,20,0.00
2013-2-28,33,30,25,29,26,20,94,84,78,30.17,29.85,21,6,21,0.01
2013-3-1,26,22,17,20,17,13,90,79,68,30.30,30.17,19,4,19,0.00
2013-3-2,29,18,10,14,9,5,88,69,45,30.33,30.22,16,3,16,0.00
2013-3-3,30,21,11,13,9,4,76,61,44,30.23,30.12,9,2,9,0.00
2013-3-4,30,24,16,24,17,7,84,75,66,30.17,30.04,20,8,20,0.00
2013-3-5,29,27,25,26,24,22,94,90,82,30.16,29.93,19,6,19,0.00
2013-3-6,32,27,23,24,22,19,89,82,73,30.37,30.16,19,5,19,0.01
2013-3-7,34,24,13,23,18,10,93,78,61,30.46,30.36,10,2,10,0.04
2013-3-8,36,27,18,27,22,16,93,82,68,30.48,30.29,20,7,20,0.00
2013-3-9,38,35,30,37,32,25,98,89,78,30.30,29.80,25,10,26,0.35
2013-3-10,40,37,33,40,36,32,98,98,98,29.81,29.63,29,6,29,0.87
2013-3-11,33,31,29,32,30,26,98,96,88,29.81,29.61,23,6,23,0.07
2013-3-12,29,26,20,27,22,17,94,87,74,30.09,29.82,21,9,25,0.00
2013-3-13,33,24,17,20,12,4,87,63,30,30.37,30.09,21,7,22,0.00
2013-3-14,37,25,14,29,21,11,95,85,72,30.37,30.10,15,4,17,0.00
2013-3-15,34,31,25,32,29,24,97,94,88,30.11,29.81,18,3,18,0.03
2013-3-16,30,26,21,28,22,18,95,84,71,30.19,29.83,15,5,16,0.00
2013-3-17,30,23,16,22,16,8,83,73,68,30.30,30.02,18,7,18,0.00
2013-3-18,31,25,15,29,21,11,93,87,74,30.03,29.63,37,11,38,0.00
2013-3-19,28,18,9,14,8,5,85,68,45,30.14,29.80,33,17,34,0.00
2013-3-20,20,13,6,12,4,-2,85,65,53,30.17,30.09,28,10,28,0.00
2013-3-21,27,17,6,14,8,1,83,67,51,30.15,30.07,15,4,16,0.00
2013-3-22,37,24,13,19,13,7,79,63,42,30.14,30.06,9,2,9,0.00
2013-3-23,37,29,19,22,19,15,86,67,50,30.18,30.09,13,3,13,0.00
2013-3-24,30,29,27,27,24,20,91,83,71,30.10,29.83,24,6,25,0.00
2013-3-25,34,30,25,25,22,18,80,73,66,30.16,29.88,20,7,20,0.00
2013-3-26,39,33,28,26,22,20,74,64,52,30.31,30.16,19,5,19,0.00
2013-3-27,41,34,25,25,22,18,78,61,42,30.36,30.30,15,4,15,0.00
2013-3-28,45,36,26,26,21,18,75,56,36,30.39,30.31,12,2,12,0.00
2013-3-29,51,40,27,26,24,20,78,54,34,30.36,30.24,11,2,11,0.00
2013-3-30,50,42,35,42,34,25,97,73,60,30.24,29.85,26,8,28,0.01
2013-3-31,43,38,31,41,32,17,97,80,49,29.97,29.76,30,9,36,0.01
2013-4-1,34,29,24,18,14,10,65,54,37,30.25,29.97,25,8,27,0.00
2013-4-2,38,30,22,17,14,10,77,54,33,30.38,30.25,28,6,28,0.00
2013-4-3,44,34,21,22,15,8,72,49,28,30.48,30.30,16,3,16,0.00
2013-4-4,55,42,29,37,28,20,73,58,44,30.30,30.00,27,8,29,0.00
2013-4-5,49,40,31,31,24,18,72,56,33,30.25,30.09,23,5,25,0.00
2013-4-6,60,46,33,51,35,21,95,67,49,30.11,29.56,32,12,32,0.05
2013-4-7,56,45,36,44,36,32,87,73,51,29.96,29.62,27,7,30,0.05
2013-4-8,65,48,38,52,42,33,97,81,54,29.98,29.61,25,7,25,0.65
2013-4-9,44,39,35,42,38,35,98,97,94,30.01,29.85,39,7,39,0.92
2013-4-10,35,33,32,35,33,31,98,98,95,30.09,29.90,27,8,28,0.91
2013-4-11,39,36,34,38,35,33,98,97,95,29.91,29.58,45,9,46,0.33
2013-4-12,38,34,32,35,32,28,98,90,78,29.83,29.55,24,7,24,0.04
2013-4-13,38,33,31,29,27,25,91,78,62,30.03,29.83,30,11,34,0.00
2013-4-14,53,40,30,45,35,25,95,84,68,30.03,29.59,29,10,31,0.07
2013-4-15,56,45,39,47,40,34,98,84,49,29.99,29.63,36,9,38,0.36
2013-4-16,52,42,32,34,31,28,87,68,45,30.31,29.99,19,5,19,0.00
2013-4-17,43,40,37,41,36,31,98,86,67,30.32,29.82,33,8,34,1.06
2013-4-18,58,45,35,58,44,32,99,96,86,29.88,29.33,49,11,49,1.06
2013-4-19,37,34,30,32,27,23,93,78,62,29.97,29.40,44,17,44,0.00
2013-4-20,46,34,25,23,19,13,80,55,29,30.40,29.97,18,4,20,0.00
2013-4-21,53,42,32,38,30,21,76,64,51,30.51,30.25,31,11,31,0.00
2013-4-22,66,54,43,42,38,36,76,58,37,30.26,29.99,25,8,25,0.00
2013-4-23,56,42,36,46,35,28,90,77,60,30.03,29.88,25,8,25,0.00
2013-4-24,51,41,32,35,26,19,79,56,33,30.08,30.00,34,8,34,0.00
2013-4-25,49,41,34,35,31,25,93,68,40,30.30,30.01,23,9,25,0.00
2013-4-26,68,54,37,48,38,24,75,55,41,30.29,30.14,38,11,38,0.00
2013-4-27,63,54,44,49,45,42,93,73,53,30.23,30.00,17,4,17,0.00
2013-4-28,72,59,45,48,44,40,87,61,38,30.00,29.77,15,2,15,0.00
2013-4-29,70,60,51,58,52,47,89,76,55,29.85,29.68,24,6,24,0.03
2013-4-30,86,72,59,61,54,46,92,57,27,29.84,29.63,41,12,41,0.19
2013-5-1,78,64,48,56,49,40,75,59,44,30.17,29.84,32,7,32,0.00
2013-5-2,48,42,34,40,36,32,93,80,68,30.29,30.16,23,8,23,0.03
2013-5-3,47,38,33,46,37,32,98,96,91,30.24,30.00,19,6,20,0.67
2013-5-4,68,57,47,58,50,45,98,80,52,30.06,29.99,19,4,20,0.07
2013-5-5,72,61,51,51,47,42,86,63,39,30.05,29.97,13,3,14,0.00
2013-5-6,74,62,48,46,43,39,76,52,30,30.07,29.97,17,3,17,0.00
2013-5-7,78,65,53,48,41,34,69,44,23,30.04,29.95,12,2,12,0.00
2013-5-8,79,68,56,53,46,39,66,48,26,30.01,29.92,14,3,14,0.00
2013-5-9,65,59,49,58,54,47,94,83,65,29.94,29.82,19,4,19,0.65
2013-5-10,53,46,42,48,44,40,96,90,81,30.00,29.86,22,5,22,0.97
2013-5-11,51,47,40,48,35,24,97,66,37,30.08,29.83,35,9,40,0.02
2013-5-12,53,44,36,27,24,19,67,47,29,30.15,30.08,26,7,26,0.00
2013-5-13,64,51,33,38,31,24,84,50,24,30.19,29.89,23,4,23,0.00
2013-5-14,89,72,53,61,50,37,69,49,25,29.89,29.55,27,8,28,0.00
2013-5-15,76,70,58,60,44,38,63,41,28,29.83,29.56,18,6,18,0.00
2013-5-16,83,71,56,51,45,40,64,42,25,29.92,29.83,16,4,17,0.00
2013-5-17,67,59,50,57,48,35,89,67,43,30.04,29.91,20,7,20,0.17
2013-5-18,80,67,53,64,56,46,81,70,52,30.03,29.88,19,6,20,0.00
2013-5-19,84,72,61,67,61,51,91,72,45,29.90,29.56,35,9,35,0.03
2013-5-20,79,70,60,63,61,57,96,74,54,29.75,29.56,47,8,47,0.16
2013-5-21,72,66,60,61,58,55,91,75,63,29.66,29.56,29,8,29,0.00
2013-5-22,70,63,56,60,56,53,94,81,57,29.75,29.59,22,4,22,0.05
2013-5-23,62,54,48,55,44,31,95,72,32,30.30,29.75,21,6,21,0.10
2013-5-24,64,52,36,43,38,33,95,62,37,30.46,30.29,13,3,14,0.00
2013-5-25,56,51,45,44,40,34,88,67,48,30.40,30.29,17,5,17,0.04
2013-5-26,62,53,45,51,44,36,88,71,47,30.31,30.13,21,6,21,0.02
2013-5-27,55,53,51,54,50,43,97,91,71,30.13,29.86,24,8,24,0.01
2013-5-28,70,61,51,67,59,50,98,95,86,29.86,29.67,15,3,15,0.37
2013-5-29,81,70,62,69,64,61,98,84,64,29.88,29.73,25,5,26,0.03
2013-5-30,82,70,61,69,65,59,95,84,61,29.83,29.63,35,8,35,0.18
2013-5-31,76,67,61,65,62,59,96,84,57,29.74,29.63,30,8,32,0.03
2013-6-1,76,67,61,65,60,53,98,79,49,29.70,29.59,31,7,31,0.00
2013-6-2,62,54,46,57,45,40,90,73,50,30.03,29.70,26,6,26,0.00
2013-6-3,71,58,40,47,43,38,95,62,38,30.12,29.99,11,2,11,0.00
2013-6-4,67,59,53,55,49,43,91,69,45,30.16,30.05,19,4,20,0.05
2013-6-5,65,56,50,59,53,46,94,88,75,30.09,29.92,15,5,15,0.36
2013-6-6,58,55,52,55,52,50,96,93,87,29.96,29.90,15,3,15,0.09
2013-6-7,70,59,51,55,51,48,94,78,49,30.00,29.91,11,2,11,0.00
2013-6-8,70,61,51,52,49,44,88,65,44,29.99,29.91,15,4,15,0.00
2013-6-9,75,65,56,64,56,46,95,74,57,29.97,29.76,28,7,29,0.31
2013-6-10,77,68,58,66,61,56,97,81,57,29.84,29.74,15,3,15,0.31
2013-6-11,81,71,56,68,63,55,97,77,56,29.89,29.76,15,2,17,0.00
2013-6-12,79,71,61,71,66,60,95,85,69,29.89,29.55,17,4,21,0.49
2013-6-13,77,68,57,60,57,53,95,71,47,30.03,29.71,18,4,19,0.49
2013-6-14,77,66,53,60,56,50,93,70,49,30.12,29.95,15,3,15,0.00
2013-6-15,82,69,60,70,63,55,93,79,64,30.01,29.78,23,6,23,0.00
2013-6-16,82,73,60,67,58,47,92,64,31,29.89,29.83,23,5,23,0.00
2013-6-17,84,72,59,61,56,51,83,59,34,29.92,29.83,21,4,21,0.00
2013-6-18,72,63,55,57,53,48,88,70,53,30.07,29.91,17,3,17,0.00
2013-6-19,79,66,51,56,50,43,81,59,39,30.13,30.03,14,3,14,0.00
2013-6-20,85,73,59,64,57,49,70,57,36,30.11,29.98,18,5,20,0.00
2013-6-21,76,70,64,68,64,61,97,83,69,30.06,29.80,34,5,34,0.57
2013-6-22,84,71,64,75,67,62,98,88,69,30.09,29.86,58,6,61,1.82
2013-6-23,84,72,61,74,67,61,99,86,60,30.02,29.80,23,5,25,1.86
2013-6-24,77,70,67,68,66,64,96,88,72,29.98,29.78,26,5,29,0.01
2013-6-25,80,72,64,74,69,63,98,93,80,29.94,29.75,28,4,28,1.96
2013-6-26,82,74,66,72,69,64,97,86,66,29.75,29.65,22,4,24,0.38
2013-6-27,85,76,69,72,66,58,98,73,46,29.78,29.68,27,6,30,0.00
2013-6-28,75,69,64,65,60,57,93,76,59,29.72,29.60,28,6,28,0.04
2013-6-29,70,65,62,63,61,58,96,87,73,29.83,29.60,18,5,18,0.05
2013-6-30,76,66,57,59,54,48,93,66,46,30.04,29.83,18,5,18,0.00
2013-7-1,77,68,58,57,53,49,79,60,39,30.11,30.03,21,4,22,0.00
2013-7-2,74,66,55,58,52,43,86,62,36,30.09,30.03,14,3,14,0.00
2013-7-3,69,61,51,61,55,48,96,81,67,30.08,30.00,8,1,8,0.00
2013-7-4,81,70,57,63,59,55,97,72,45,30.07,29.97,15,3,15,0.00
2013-7-5,83,73,62,66,63,60,92,73,51,30.02,29.94,21,5,22,0.00
2013-7-6,84,74,62,69,64,59,91,73,50,30.00,29.91,15,4,18,0.00
2013-7-7,86,76,66,74,68,64,95,79,61,29.94,29.86,18,4,18,0.00
2013-7-8,87,78,70,76,72,68,95,83,64,29.93,29.86,22,5,22,0.36
2013-7-9,83,76,70,75,72,69,98,88,75,29.94,29.79,27,6,27,0.36
2013-7-10,77,72,64,73,62,55,93,72,51,30.00,29.81,17,4,20,0.00
2013-7-11,81,69,55,60,57,53,96,69,45,30.11,30.00,13,1,13,0.00
2013-7-12,81,70,58,61,57,53,89,67,43,30.13,30.04,14,3,14,0.00
2013-7-13,82,70,61,66,60,54,88,71,51,30.13,30.04,15,4,15,0.00
2013-7-14,86,75,62,69,65,58,89,72,54,30.19,30.12,17,4,17,0.00
2013-7-15,89,79,69,74,70,66,89,75,57,30.23,30.15,10,3,10,0.00
2013-7-16,88,80,72,76,73,70,96,80,61,30.24,30.18,18,4,18,0.00
2013-7-17,90,82,72,76,73,70,96,77,56,30.25,30.12,12,3,17,0.00
2013-7-18,89,81,71,74,72,69,95,75,55,30.13,29.86,25,6,25,0.00
2013-7-19,88,80,70,75,70,64,84,72,55,29.86,29.70,27,8,29,0.01
2013-7-20,83,73,61,66,63,59,93,71,53,29.92,29.80,16,3,17,0.00
2013-7-21,80,67,60,71,62,57,93,84,67,29.92,29.82,25,6,27,0.30
2013-7-22,84,70,62,72,65,60,97,85,63,29.87,29.68,41,5,45,0.69
2013-7-23,73,66,60,63,57,54,98,74,53,29.97,29.71,15,5,22,0.69
2013-7-24,73,64,52,57,53,50,97,71,46,30.06,29.97,10,1,10,0.00
2013-7-25,78,66,54,65,59,51,95,79,60,30.06,29.96,20,4,22,0.50
2013-7-26,74,66,60,69,61,55,97,85,54,29.96,29.82,33,5,34,0.78
2013-7-27,60,54,51,54,48,43,89,79,63,29.95,29.88,21,7,25,0.00
2013-7-28,65,57,50,54,51,47,94,81,65,30.03,29.86,19,6,19,0.00
2013-7-29,76,64,53,60,56,50,93,76,57,30.14,30.03,10,3,12,0.00
2013-7-30,68,63,56,63,60,55,96,89,78,30.15,30.05,11,4,11,0.00
2013-7-31,77,68,60,67,63,59,97,86,68,30.06,29.93,20,3,20,0.00
2013-8-1,76,67,59,61,58,53,97,73,48,30.00,29.89,19,4,22,0.18
2013-8-2,77,68,60,67,60,55,97,77,50,29.95,29.81,15,3,15,0.67
2013-8-3,75,67,57,58,54,49,87,65,43,30.13,29.95,18,3,18,0.00
2013-8-4,75,65,56,62,55,49,93,72,42,30.21,30.09,11,2,11,0.00
2013-8-5,69,63,57,65,60,54,97,90,78,30.09,29.83,19,4,20,0.07
2013-8-6,81,72,66,71,68,65,98,86,64,29.86,29.75,11,3,17,0.01
2013-8-7,77,71,66,70,65,60,97,82,67,29.95,29.72,21,0,21,0.00
2013-8-8,78,68,60,65,61,56,96,79,55,30.03,29.94,13,3,13,0.00
2013-8-9,76,68,60,65,60,56,94,79,55,30.05,29.96,16,3,16,0.00
2013-8-10,74,65,56,58,55,51,94,72,49,30.14,30.05,14,3,14,0.00
2013-8-11,74,64,54,66,60,52,96,87,73,30.13,30.00,18,3,18,0.09
2013-8-12,78,70,64,68,63,57,97,80,53,30.02,29.88,20,3,20,0.13
2013-8-13,69,62,54,57,51,46,91,68,47,30.15,29.96,15,3,17,0.00
2013-8-14,73,61,46,56,50,45,96,71,46,30.22,30.10,13,2,14,0.00
2013-8-15,75,64,52,58,54,50,94,73,43,30.15,30.07,13,2,14,0.00
2013-8-16,79,68,57,59,55,51,90,66,40,30.17,30.11,11,2,13,0.00
2013-8-17,79,67,54,59,55,51,91,66,42,30.22,30.14,13,2,13,0.00
2013-8-18,81,68,56,62,56,52,90,68,42,30.19,30.06,13,2,13,0.00
2013-8-19,79,68,56,66,60,54,94,77,51,30.08,29.99,21,3,21,0.00
2013-8-20,84,73,63,68,64,60,95,75,51,30.04,29.95,22,5,22,0.00
2013-8-21,86,76,67,71,68,64,91,76,59,29.99,29.89,28,7,28,0.03
2013-8-22,77,70,63,70,67,62,98,92,75,30.09,29.94,40,3,41,1.62
2013-8-23,80,70,59,66,60,56,98,73,51,30.16,30.08,15,4,15,0.01
2013-8-24,82,70,59,70,62,52,88,75,64,30.22,30.12,18,5,18,0.00
2013-8-25,86,77,68,72,68,66,93,76,55,30.16,30.05,24,7,25,0.00
2013-8-26,89,78,68,76,71,65,89,79,63,30.07,29.91,21,5,21,0.00
2013-8-27,90,80,71,75,72,68,91,77,57,29.93,29.75,27,6,28,0.00
2013-8-28,81,76,71,74,71,67,96,86,72,30.01,29.79,12,2,12,0.00
2013-8-29,86,76,66,72,68,64,96,80,57,30.05,29.92,15,4,15,0.00
2013-8-30,90,78,68,79,72,67,97,83,66,29.92,29.72,20,4,20,0.00
2013-8-31,80,71,64,70,66,62,96,84,67,29.83,29.74,13,2,15,0.01
2013-9-1,82,71,63,72,65,59,98,83,55,29.83,29.70,20,4,20,0.01
2013-9-2,66,62,54,60,56,52,94,82,67,30.00,29.83,16,4,16,0.00
2013-9-3,74,60,46,58,53,45,98,79,51,30.10,30.00,13,2,13,0.01
2013-9-4,82,66,49,68,59,48,98,80,56,30.12,30.03,17,3,17,0.00
2013-9-5,74,67,57,66,60,50,96,80,66,30.22,30.09,16,5,16,0.00
2013-9-6,85,70,55,67,59,49,82,69,52,30.19,29.94,22,5,22,0.00
2013-9-7,89,76,65,73,67,61,91,75,55,29.95,29.83,20,3,20,0.01
2013-9-8,73,67,63,68,63,59,91,88,82,30.02,29.91,21,6,23,0.00
2013-9-9,93,77,65,77,69,63,96,80,53,29.92,29.73,19,5,19,0.00
2013-9-10,92,80,71,69,65,62,91,62,39,29.91,29.79,33,7,33,0.02
2013-9-11,81,72,65,68,65,62,96,80,60,30.06,29.91,30,4,31,0.23
2013-9-12,71,64,56,63,54,48,97,73,48,30.13,29.96,22,5,23,0.00
2013-9-13,65,54,44,48,43,39,93,68,40,30.24,30.13,12,2,14,0.00
2013-9-14,70,57,42,49,45,40,93,67,41,30.18,29.97,18,4,18,0.00
2013-9-15,61,55,52,56,53,47,96,92,64,30.22,29.94,16,3,16,0.69
2013-9-16,63,54,44,54,46,40,92,76,52,30.41,30.22,14,4,14,0.00
2013-9-17,67,56,44,56,50,42,95,83,63,30.35,30.06,21,5,21,0.00
2013-9-18,76,67,60,68,62,55,92,82,72,30.06,29.83,22,6,23,0.00
2013-9-19,86,71,65,74,68,63,98,90,58,29.85,29.68,41,6,41,0.85
2013-9-20,66,62,54,65,58,52,98,88,71,29.84,29.70,20,7,22,0.62
2013-9-21,61,53,45,52,48,43,97,84,63,29.96,29.83,19,4,19,0.00
2013-9-22,65,53,42,50,46,41,98,80,56,30.09,29.96,13,3,13,0.01
2013-9-23,68,55,46,54,48,44,95,80,56,30.11,30.00,16,6,16,0.00
2013-9-24,70,58,48,55,50,46,94,77,48,30.03,29.92,16,5,16,0.00
2013-9-25,70,58,48,55,51,46,97,78,50,29.99,29.91,16,3,16,0.00
2013-9-26,75,61,51,58,53,48,98,77,51,30.06,29.97,14,6,17,0.00
2013-9-27,79,65,54,56,52,48,87,66,34,30.11,29.98,19,6,21,0.00
2013-9-28,79,63,52,65,56,51,96,79,57,29.99,29.80,35,8,35,0.21
2013-9-29,69,56,41,55,47,40,98,75,41,30.07,29.96,11,2,12,0.03
2013-9-30,72,59,47,51,47,43,87,65,39,29.98,29.79,20,6,25,0.00
2013-10-1,78,65,54,62,57,51,96,78,54,29.96,29.82,25,6,25,0.00
2013-10-2,76,63,48,53,46,38,93,57,29,30.09,29.93,14,4,15,0.00
2013-10-3,72,65,57,68,60,45,97,87,63,29.93,29.79,18,4,18,0.00
2013-10-4,67,65,63,66,64,62,98,95,89,29.96,29.83,24,4,24,0.38
2013-10-5,72,65,52,69,62,44,99,93,74,29.88,29.71,20,6,20,0.08
2013-10-6,54,47,40,45,41,38,96,81,59,29.77,29.68,16,4,20,0.01
2013-10-7,66,52,43,48,44,41,96,77,44,30.08,29.74,22,5,23,0.02
2013-10-8,74,59,43,53,46,40,88,64,37,30.14,30.06,24,5,25,0.00
2013-10-9,72,59,50,52,46,42,86,64,37,30.19,30.10,17,4,17,0.00
2013-10-10,73,60,46,52,48,43,91,69,43,30.15,30.00,18,3,18,0.00
2013-10-11,74,62,53,60,54,50,91,76,53,30.01,29.86,20,7,28,0.00
2013-10-12,65,60,45,58,48,36,88,67,44,30.15,29.85,28,8,28,0.00
2013-10-13,62,49,35,42,36,32,94,63,35,30.42,30.15,20,3,20,0.00
2013-10-14,61,50,38,46,40,33,85,71,52,30.43,30.09,23,6,23,0.00
2013-10-15,58,52,48,57,48,43,97,87,72,30.09,29.74,29,11,31,0.43
2013-10-16,50,48,46,48,46,44,96,93,86,29.96,29.79,21,7,22,0.01
2013-10-17,54,46,38,45,41,36,97,85,57,29.93,29.82,17,2,18,0.04
2013-10-18,46,42,37,42,38,34,94,84,68,29.96,29.82,24,5,24,0.00
2013-10-19,50,39,31,40,35,29,95,86,53,29.94,29.75,38,5,38,0.03
2013-10-20,48,40,28,46,38,27,97,91,78,29.86,29.72,19,5,19,0.07
2013-10-21,47,37,30,43,29,22,87,72,51,29.99,29.79,27,9,27,0.01
2013-10-22,44,33,22,31,26,19,92,76,56,30.01,29.95,11,2,12,0.00
2013-10-23,39,34,26,30,27,24,93,77,58,30.07,30.00,18,4,18,0.00
2013-10-24,42,35,31,28,25,23,81,68,51,30.34,30.06,21,6,21,0.00
2013-10-25,50,39,27,32,27,23,89,65,44,30.40,29.95,36,10,36,0.00
2013-10-26,49,43,36,36,31,28,77,61,45,30.09,29.83,33,9,36,0.00
2013-10-27,53,40,26,32,29,23,92,68,40,30.09,29.92,30,5,30,0.00
2013-10-28,42,39,37,33,32,29,84,74,64,30.43,30.06,22,6,22,0.00
2013-10-29,49,43,36,41,36,29,88,78,70,30.42,30.14,18,6,18,0.00
2013-10-30,55,49,44,54,48,40,98,96,87,30.14,29.73,23,6,24,0.00
2013-10-31,60,53,42,59,52,39,98,96,90,29.73,29.30,27,8,27,0.27
2013-11-1,45,42,38,42,39,35,93,90,85,29.78,29.36,23,7,24,0.01
2013-11-2,46,40,33,36,34,29,92,81,62,30.18,29.78,16,5,18,0.00
2013-11-3,50,39,27,37,32,26,97,78,53,30.31,30.17,25,6,25,0.00
2013-11-4,51,46,41,46,40,35,93,78,67,30.19,30.03,32,9,32,0.00
2013-11-5,52,49,44,51,47,42,97,93,84,30.25,29.83,27,6,30,0.27
2013-11-6,54,41,31,53,36,23,98,84,56,30.20,29.72,31,8,31,0.53
2013-11-7,40,33,25,32,28,22,89,81,67,30.28,30.19,18,4,20,0.00
2013-11-8,46,36,23,35,29,22,96,78,57,30.32,29.81,30,7,30,0.00
2013-11-9,50,45,37,41,36,25,84,70,52,30.13,29.78,47,14,48,0.00
2013-11-10,46,39,34,32,30,27,78,69,55,30.35,30.13,29,8,29,0.00
2013-11-11,43,31,20,34,25,13,95,78,67,30.62,30.08,21,7,21,0.01
2013-11-12,28,20,15,16,13,10,85,73,53,30.79,30.62,18,6,18,0.00
2013-11-13,41,28,15,20,16,11,85,62,40,30.63,30.11,31,10,33,0.00
2013-11-14,47,38,31,32,26,19,75,62,51,30.11,29.91,28,8,28,0.00
2013-11-15,54,42,32,40,33,27,88,72,56,29.95,29.86,18,4,18,0.00
2013-11-16,57,48,37,55,46,34,98,94,86,29.87,29.45,35,11,37,0.16
2013-11-17,57,48,38,55,46,33,98,92,80,29.72,29.16,39,11,39,0.88
2013-11-18,38,33,25,33,25,21,85,74,57,30.31,29.72,36,11,37,0.00
2013-11-19,40,30,19,30,24,16,94,79,57,30.39,30.25,19,6,20,0.00
2013-11-20,38,34,32,34,30,28,96,85,70,30.25,30.10,34,10,34,0.03
2013-11-21,40,38,35,37,36,34,97,94,90,30.30,30.12,14,3,14,0.03
2013-11-22,36,29,22,34,23,14,95,79,55,30.54,30.29,19,6,19,0.03
2013-11-23,22,16,10,15,7,3,77,67,53,30.80,30.47,22,8,30,0.00
2013-11-24,25,16,5,10,5,1,86,64,40,30.78,30.33,31,8,33,0.00
2013-11-25,29,25,20,26,20,10,93,83,58,30.33,30.07,30,10,30,0.00
2013-11-26,31,24,11,26,16,3,88,72,53,30.29,30.07,26,7,26,0.00
2013-11-27,25,16,8,13,9,3,83,72,57,30.36,30.25,15,5,16,0.00
2013-11-28,29,23,17,17,14,11,79,69,60,30.56,30.19,16,4,16,0.00
2013-11-29,30,22,9,21,16,6,92,76,63,30.67,30.38,19,5,19,0.00
2013-11-30,41,32,25,32,27,21,87,80,69,30.38,30.08,18,6,18,0.00
2013-12-1,40,33,28,30,27,24,90,78,63,30.18,30.00,10,2,10,0.00
2013-12-2,38,32,27,33,29,24,96,89,79,30.00,29.74,22,8,23,0.02
2013-12-3,38,36,33,37,35,32,98,98,96,29.76,29.68,18,5,18,0.07
2013-12-4,48,39,30,48,38,30,99,98,98,29.75,29.46,18,4,19,0.03
2013-12-5,30,21,11,30,17,6,98,87,79,30.35,29.68,1,0,1,0.00
2013-12-6,16,8,5,6,3,1,86,78,60,30.65,30.33,0,0,0,0.00
2013-12-7,16,6,-2,3,-1,-5,87,73,49,30.79,30.65,12,0,12,0.00
2013-12-8,19,13,8,17,9,0,93,82,69,30.68,30.03,14,4,14,0.00
2013-12-9,15,5,-7,13,1,-10,92,83,69,30.27,30.01,34,8,34,0.00
2013-12-10,15,6,-9,10,1,-12,89,79,62,30.35,30.00,32,10,32,0.00
2013-12-11,13,5,-7,11,-1,-12,90,74,51,30.61,30.33,21,6,21,0.00
2013-12-12,16,7,-7,9,2,-11,88,79,70,30.58,30.26,22,6,22,0.00
2013-12-13,22,17,10,18,13,7,90,84,72,30.26,30.19,22,4,22,0.00
2013-12-14,23,19,16,19,16,12,91,88,84,30.23,30.01,23,7,23,0.00
2013-12-15,16,9,5,12,2,-5,84,72,58,30.20,30.01,25,8,27,0.00
2013-12-16,14,7,0,12,2,-7,92,79,62,30.22,30.09,17,4,17,0.00
2013-12-17,33,23,14,26,18,10,94,81,59,30.14,29.98,33,9,33,0.00
2013-12-18,35,22,8,25,16,5,90,76,54,30.17,29.82,28,6,28,0.00
2013-12-19,30,27,23,27,24,20,95,87,76,30.00,29.84,19,4,19,0.00
2013-12-20,23,21,19,21,20,18,95,93,91,29.94,29.86,16,4,18,0.00
2013-12-21,26,24,22,25,22,20,96,95,95,29.93,29.77,9,2,10,0.00
2013-12-22,25,23,21,24,22,19,95,95,94,30.17,29.77,13,4,13,0.00
2013-12-23,21,4,-6,19,1,-9,94,86,78,30.53,30.17,19,7,19,0.00
2013-12-24,12,0,-11,7,-3,-15,90,84,78,30.64,30.36,18,5,18,0.00
2013-12-25,22,17,10,20,15,7,93,91,86,30.36,30.15,20,8,21,0.00
2013-12-26,27,19,8,23,16,6,91,87,81,30.27,30.17,14,3,14,0.00
2013-12-27,37,26,14,31,22,12,95,87,78,30.29,30.07,21,4,21,0.00
2013-12-28,43,35,24,33,29,22,94,81,68,30.09,29.77,23,6,23,0.13
2013-12-29,37,17,-4,32,12,-13,92,81,69,30.30,29.75,26,9,27,0.00
2013-12-30,1,-5,-14,-4,-11,-19,86,74,54,30.40,30.30,10,2,13,0.00
2013-12-31,6,1,-8,3,-3,-12,88,86,79,30.43,30.30,13,2,13,0.00
2014-1-1,8,4,-1,2,-2,-8,81,75,70,30.45,30.37,18,6,18,0.00
2014-1-2,12,6,-5,3,-1,-11,84,73,64,30.52,30.35,19,6,20,0.00